Wind_Speed
49 49 47 45 44 43 41 40 38 35 31 32 34 36 36 36 36 37 37 37 38 38 39 40 41 42 44 46 49 52 55 57 59 63 66 69 74 74
49 48 47 47 45 43 41 39 37 34 29 28 30 31 32 32 32 33 33 33 33 33 34 35 36 38 40 42 45 47 50 53 56 59 62 64 68 71
49 48 46 45 43 40 39 37 35 33 28 24 25 27 28 29 29 28 27 26 27 27 28 29 30 32 34 36 39 42 45 48 52 56 59 61 63 67
48 46 45 43 40 38 36 34 32 30 26 22 23 24 25 26 25 23 22 22 22 22 22 23 24 26 29 32 34 37 40 43 47 51 55 57 59 63
46 43 42 40 38 35 33 31 29 27 24 21 21 23 23 22 21 20 19 18 18 17 18 19 22 25 27 30 33 35 37 40 43 47 51 54 57 60
43 41 39 37 34 32 30 28 26 24 22 20 20 20 19 18 16 15 14 14 14 14 16 19 21 23 25 26 28 30 33 36 39 43 48 52 54 57
40 38 36 33 30 28 26 25 22 20 19 18 17 16 14 13 12 11 10 10 11 12 15 17 19 19 18 19 19 22 25 29 33 38 44 49 52 55
37 35 32 29 26 24 22 20 19 17 15 15 14 12 11 9 8 8 7 8 9 11 13 14 14 11 8 6 6 11 17 23 28 34 40 46 50 55
33 30 27 24 21 19 18 16 15 14 12 11 10 9 7 6 6 6 6 6 7 8 9 10 8 5 5 5 7 10 15 21 27 33 40 46 51 56
30 26 23 20 17 15 14 13 11 10 9 7 6 5 5 5 5 4 3 3 3 5 6 6 7 9 9 11 14 17 19 23 29 35 41 47 51 54
26 23 19 16 13 11 11 10 9 7 7 6 5 5 6 5 5 4 2 1 2 4 5 8 11 12 14 17 20 23 26 30 34 39 42 46 49 50
23 19 16 12 9 9 9 9 8 8 8 7 7 7 7 6 6 4 4 4 5 6 9 12 14 16 18 21 24 27 30 34 38 40 42 44 45 45
19 16 12 7 7 8 10 11 11 11 10 10 10 10 9 8 7 6 6 7 9 11 14 16 18 18 18 23 26 29 32 33 36 38 39 40 41 40
14 10 7 4 8 11 12 13 14 14 13 13 13 12 11 10 9 9 9 11 14 15 17 19 21 21 22 22 24 27 29 31 34 34 36 37 36 36
9 5 2 6 11 14 15 16 17 17 16 15 14 12 11 10 11 11 12 15 18 19 21 22 24 25 24 23 24 26 27 27 29 31 31 31 32 32
4 1 4 10 14 16 18 19 19 18 17 16 15 13 11 11 13 14 16 19 21 22 23 24 25 26 25 23 23 24 25 25 27 26 26 26 27 27
1 4 8 13 16 18 20 20 20 19 18 17 15 14 13 13 15 17 20 22 24 24 24 24 24 25 25 23 22 22 22 22 23 24 24 23 22 22
5 7 11 15 17 20 21 21 20 19 19 18 16 15 14 15 17 20 22 24 25 25 24 23 22 22 22 23 23 22 21 21 22 23 24 23 22 22
7 10 13 16 18 20 21 21 20 19 19 19 18 16 15 17 19 21 23 24 25 24 24 23 22 22 20 18 19 20 21 21 21 21 21 23 23 22
9 11 14 16 18 20 21 21 20 20 20 19 18 17 17 19 20 21 22 22 22 22 21 20 20 20 20 19 16 15 17 21 22 22 22 23 24 24
10 12 14 16 18 19 20 21 21 20 20 19 18 17 18 19 20 20 20 20 20 19 18 17 17 17 18 19 18 18 18 20 22 25 26 26 26 25
11 13 15 16 17 18 19 20 21 21 21 20 19 18 18 19 19 18 18 17 17 16 16 15 15 15 16 19 21 21 21 21 22 23 24 25 26 26
12 14 15 16 17 17 18 19 20 20 20 20 19 18 18 18 18 17 16 15 14 14 14 14 13 14 15 18 22 24 24 25 25 25 25 24 23 23
Wind_Direction
301 299 295 293 293 293 292 292 292 289 284 279 274 272 272 272 272 272 272 270 270 268 266 263 261 258 255 251 247 244 243 241 239 236 233 229 226 223
302 298 294 291 290 289 289 290 292 290 286 279 274 272 272 273 274 275 274 271 271 269 266 264 262 259 255 252 248 244 242 239 236 234 231 228 226 223
302 298 295 291 287 285 286 286 288 289 288 280 274 272 273 275 277 277 275 271 269 268 266 264 262 259 256 252 249 245 242 238 234 231 228 225 223 221
302 298 295 292 287 282 282 282 283 285 284 280 276 276 277 277 276 276 271 267 267 267 266 265 264 262 259 255 252 247 241 236 232 228 223 220 218 216
302 299 296 291 286 281 279 278 279 279 280 278 278 280 281 279 275 272 267 263 264 266 268 269 271 269 266 262 256 248 241 234 229 224 219 215 212 210
303 300 297 292 285 280 276 274 273 274 274 276 280 282 280 277 272 265 260 261 264 269 274 278 280 279 274 266 256 246 238 230 224 217 213 209 207 204
304 302 299 293 285 278 272 269 267 268 269 275 281 281 276 273 264 254 252 262 270 277 286 292 295 295 287 275 255 238 227 218 212 207 205 202 199 196
305 303 301 294 285 276 269 262 260 260 265 273 275 276 268 260 248 239 248 267 278 293 303 310 314 315 309 294 230 207 200 197 196 194 193 192 190 188
306 304 301 294 284 273 265 257 250 249 258 264 263 262 250 236 225 229 246 268 291 312 325 336 353 41 62 92 120 143 161 171 176 178 179 180 180 180
307 305 300 293 282 266 255 246 239 239 245 240 236 226 210 200 196 206 237 274 311 343 358 21 66 92 82 104 109 121 135 146 155 161 166 169 171 175
307 306 299 290 276 254 238 227 219 216 207 199 197 179 167 169 175 185 197 176 58 49 55 79 100 102 100 106 110 116 126 135 143 150 155 160 165 171
307 305 301 287 261 229 211 199 191 183 176 169 159 150 148 149 157 159 149 125 106 95 96 106 114 112 110 112 114 118 123 130 136 143 149 156 162 169
307 304 301 276 222 193 184 174 166 161 155 150 144 139 139 142 146 145 136 124 115 112 112 114 121 121 118 119 118 123 128 131 138 143 149 157 163 170
310 304 295 229 178 167 163 159 154 150 145 139 136 133 136 140 142 139 131 125 121 119 118 118 123 126 127 126 125 128 132 137 142 146 153 159 164 169
314 301 257 172 157 153 152 151 149 144 140 136 133 132 134 138 140 135 130 129 126 124 122 122 122 125 128 129 131 133 137 141 144 148 152 158 165 171
325 270 162 153 150 150 150 149 148 145 140 136 133 133 134 134 135 133 131 131 130 129 126 124 123 125 127 129 134 139 142 149 154 158 164 169 173 177
58 136 145 147 147 149 151 151 149 145 141 138 135 135 134 133 133 132 132 131 132 133 131 129 127 129 132 137 141 147 152 157 162 165 168 172 177 183
106 130 140 143 145 149 151 153 150 147 144 141 138 136 134 133 133 134 134 133 133 135 136 133 130 133 140 144 146 149 154 162 167 170 168 166 170 174
106 124 136 140 144 149 152 153 153 151 150 147 143 140 136 135 135 136 138 138 139 140 142 143 142 143 146 151 155 157 157 158 161 165 168 167 165 167
106 121 133 140 143 148 153 155 156 156 155 153 150 145 139 137 136 138 140 141 143 145 148 151 154 155 153 154 157 162 165 162 161 162 164 164 161 160
106 119 131 139 145 149 154 157 159 159 160 159 155 150 145 142 140 140 141 143 144 148 151 155 160 163 162 157 157 161 165 168 167 165 163 161 159 159
110 118 127 136 144 150 155 159 161 162 163 163 160 156 152 148 146 144 142 143 146 149 154 160 165 169 169 164 162 163 164 164 163 162 161 162 162 162
113 119 125 133 141 149 155 160 164 166 167 168 166 163 159 156 153 150 147 144 146 151 156 162 167 170 173 172 168 165 164 163 163 163 164 165 167 168
Height
5611 5605 5600 5595 5590 5586 5581 5577 5575 5574 5573 5570 5566 5564 5563 5563 5563 5562 5562 5561 5561 5561 5561 5561 5561 5562 5563 5566 5569 5573 5579 5585 5592 5601 5611 5622 5635 5649
5599 5594 5588 5583 5579 5575 5571 5568 5564 5562 5563 5560 5557 5555 5554 5554 5553 5553 5552 5551 5551 5550 5549 5548 5548 5548 5549 5551 5554 5557 5562 5568 5575 5584 5594 5606 5618 5632
5586 5581 5575 5571 5567 5564 5561 5558 5555 5553 5553 5552 5549 5548 5546 5546 5545 5544 5543 5542 5541 5540 5539 5538 5537 5537 5537 5538 5540 5543 5547 5552 5559 5568 5578 5590 5603 5618
5573 5567 5562 5558 5554 5552 5550 5548 5546 5545 5544 5544 5542 5541 5540 5538 5538 5537 5536 5535 5534 5532 5531 5530 5529 5528 5527 5527 5528 5529 5533 5538 5544 5553 5563 5576 5590 5603
5561 5555 5550 5546 5542 5541 5540 5539 5538 5537 5537 5537 5536 5534 5533 5532 5531 5530 5529 5529 5528 5527 5525 5524 5522 5520 5517 5516 5515 5516 5519 5524 5531 5539 5550 5562 5576 5591
5548 5543 5538 5534 5531 5530 5530 5529 5530 5530 5530 5530 5529 5528 5527 5526 5525 5525 5524 5524 5523 5522 5520 5518 5515 5511 5508 5504 5503 5504 5506 5511 5518 5527 5539 5552 5567 5582
5537 5532 5527 5524 5521 5520 5521 5521 5522 5523 5523 5523 5523 5522 5522 5521 5521 5521 5521 5521 5520 5518 5516 5513 5508 5504 5499 5495 5493 5494 5496 5502 5510 5519 5531 5545 5560 5576
5528 5522 5518 5514 5513 5512 5512 5514 5515 5516 5517 5518 5518 5518 5518 5518 5518 5518 5519 5519 5517 5515 5512 5508 5504 5499 5495 5491 5489 5489 5493 5498 5506 5515 5527 5541 5556 5573
5519 5514 5510 5507 5505 5505 5506 5508 5509 5511 5512 5513 5514 5514 5515 5515 5516 5517 5517 5517 5515 5513 5510 5506 5502 5499 5496 5493 5491 5491 5494 5499 5506 5515 5526 5540 5555 5572
5510 5507 5503 5501 5499 5500 5501 5503 5505 5506 5508 5509 5510 5512 5513 5514 5515 5516 5516 5515 5514 5512 5510 5507 5504 5502 5500 5498 5496 5497 5499 5504 5510 5519 5531 5544 5559 5575
5503 5500 5497 5495 5495 5495 5497 5499 5501 5503 5505 5507 5509 5510 5512 5513 5515 5516 5516 5515 5514 5513 5512 5510 5509 5508 5507 5506 5505 5506 5508 5512 5519 5528 5539 5552 5566 5581
5496 5494 5492 5491 5491 5492 5494 5496 5499 5501 5504 5506 5508 5510 5512 5514 5515 5516 5516 5516 5516 5515 5515 5514 5514 5515 5515 5515 5516 5517 5520 5524 5531 5539 5549 5561 5574 5587
5491 5489 5488 5487 5488 5489 5492 5495 5498 5501 5503 5506 5508 5510 5513 5515 5516 5517 5517 5518 5518 5518 5519 5519 5520 5522 5524 5525 5526 5529 5533 5538 5544 5551 5560 5570 5581 5593
5487 5485 5485 5485 5486 5488 5491 5494 5498 5501 5504 5507 5509 5512 5514 5516 5517 5518 5519 5520 5521 5522 5523 5524 5526 5528 5531 5534 5537 5540 5544 5550 5556 5564 5571 5579 5587 5596
5484 5483 5483 5484 5486 5489 5492 5495 5499 5502 5506 5509 5512 5514 5516 5517 5519 5520 5521 5522 5524 5526 5528 5530 5532 5535 5539 5543 5547 5550 5555 5560 5566 5573 5579 5586 5593 5600
5483 5483 5483 5484 5487 5490 5493 5497 5500 5504 5508 5511 5514 5516 5518 5519 5521 5522 5524 5526 5529 5531 5533 5536 5538 5541 5545 5549 5554 5559 5563 5568 5573 5579 5585 5591 5597 5602
5483 5483 5484 5486 5488 5492 5495 5499 5503 5506 5510 5513 5516 5518 5520 5522 5524 5526 5528 5530 5533 5536 5540 5543 5545 5547 5551 5555 5560 5565 5569 5574 5579 5584 5589 5594 5599 5603
5484 5484 5486 5488 5490 5494 5497 5502 5505 5509 5513 5516 5519 5521 5523 5525 5527 5530 5532 5535 5538 5541 5545 5548 5551 5554 5558 5561 5565 5569 5573 5578 5582 5586 5591 5595 5600 5604
5486 5487 5488 5490 5493 5496 5500 5504 5508 5512 5516 5519 5522 5525 5527 5529 5531 5534 5537 5540 5543 5546 5550 5553 5555 5559 5563 5567 5570 5572 5576 5580 5584 5589 5593 5597 5601 5606
5489 5490 5491 5493 5496 5499 5503 5506 5511 5515 5519 5522 5525 5528 5531 5533 5536 5538 5541 5544 5547 5551 5554 5557 5560 5562 5566 5570 5574 5577 5579 5582 5586 5590 5595 5599 5603 5608
5492 5493 5494 5496 5499 5502 5505 5509 5513 5517 5521 5524 5528 5531 5534 5537 5540 5543 5545 5548 5551 5554 5557 5560 5563 5566 5568 5572 5575 5579 5582 5585 5588 5591 5596 5601 5605 5610
5496 5496 5497 5499 5502 5505 5508 5511 5515 5519 5523 5527 5531 5534 5537 5540 5543 5546 5549 5552 5555 5558 5560 5563 5565 5568 5570 5573 5576 5580 5584 5588 5592 5596 5601 5605 5608 5613
5499 5500 5501 5502 5505 5507 5511 5514 5518 5521 5525 5529 5533 5537 5540 5543 5546 5549 5552 5555 5557 5560 5562 5564 5567 5569 5572 5574 5577 5581 5585 5590 5595 5599 5604 5608 5612 5615